This demonstration page uses our WeatherBlox Daily Observations layout. Learn more.

Left ArrowRight Arrow

Hourly Observations for October 7, 2018

Temp ( °F °C ) Dew Point ( °F °C ) Humidity (%) Winds ( mph kmh ) Pressure ( in mb ) Visibility ( mi km ) Precip ( " mm )
12:27 am 00:27 Cloudy 48 8.9 42 5.6 80 80 E 12 19 30.18 1022 10 16 0.00 0.00
12:54 am 00:54 Cloudy 47 8.3 43 6.1 86 86 E 10 17 30.16 1021 8 13 0.00 0.00
1:08 am 01:08 Cloudy with Mist and Fog 47 8.3 44 6.7 90 90 E 8 13 30.18 1022 6 10 0.00 0.00
1:54 am 01:54 Cloudy with Mist and Fog 46 7.8 44 6.7 93 93 NE 6 9 30.17 1022 5 8 0.00 0.00
2:36 am 02:36 Cloudy 46 7.8 44 6.7 93 93 NE 8 13 30.18 1022 8 13 0.00 0.00
2:54 am 02:54 Cloudy with Mist and Fog 46 7.8 44 6.7 93 93 N 6 9 30.17 1022 5 8 0.00 0.00
3:19 am 03:19 Cloudy with Mist and Fog 46 7.8 44 6.7 93 93 NNE 8 13 30.18 1022 2 3 0.00 0.00
3:40 am 03:40 Cloudy with Mist and Fog 45 7.2 44 6.7 97 97 NNE 9 15 30.15 1021 3 5 0.00 0.00
3:50 am 03:50 Cloudy with Mist and Fog 45 7 45 7 100 100 NNE 10 17 30.15 1021 3 5 0.00 0.00
3:54 am 03:54 Cloudy with Mist and Fog 45 7.2 44 6.7 97 97 NE 10 17 30.14 1021 3 5 0.00 0.00
4:07 am 04:07 Cloudy with Mist and Fog 45 7.2 44 6.7 97 97 NE 13 20 30.15 1021 4 6 0.00 0.00
4:27 am 04:27 Cloudy with Mist and Fog 45 7.2 44 6.7 97 97 NE 12 19 30.15 1021 5 8 0.00 0.00
4:49 am 04:49 Cloudy with Mist and Fog 45 7 43 6 93 93 NE 9 15 30.15 1021 6 10 0.00 0.00
4:54 am 04:54 Cloudy with Mist and Fog 45 7.2 43 6.1 93 93 NNE 10 17 30.13 1020 5 8 0.00 0.00
5:41 am 05:41 Cloudy with Mist and Fog 44 6.7 42 5.6 93 93 NE 12 19 30.15 1021 4 6 0.00 0.00
5:54 am 05:54 Cloudy with Mist and Fog 44 6.7 42 5.6 93 93 NE 13 20 30.12 1020 4 6 0.00 0.00
6:26 am 06:26 Cloudy with Mist and Fog 44 6.7 42 5.6 93 93 NE 12 19 30.15 1021 5 8 0.00 0.00
6:54 am 06:54 Cloudy with Mist and Fog 44 6.7 42 5.6 93 93 NE 10 17 30.12 1020 6 10 0.00 0.00
7:54 am 07:54 Cloudy 44 6.7 43 6.1 96 96 NE 10 17 30.14 1021 7 11 0.00 0.00
8:54 am 08:54 Cloudy with Mist and Fog 45 7.2 43 6.1 93 93 NE 10 17 30.14 1021 5 8 0.02 0.51
9:54 am 09:54 Cloudy with Mist and Fog 46 7.8 44 6.7 93 93 NNE 9 15 30.14 1021 4 6 0.00 0.03
10:54 am 10:54 Cloudy with Light Rain 46 7.8 45 7.2 96 96 NE 7 11 30.15 1021 6 10 0.00 0.03
11:28 am 11:28 Cloudy 47 8.3 45 7.2 93 93 NE 10 17 30.15 1021 7 11 0.00 0.03
11:54 am 11:54 Cloudy with Light Rain 47 8.3 45 7.2 93 93 ENE 12 19 30.12 1020 3 5 0.02 0.51
12:54 pm 12:54 Cloudy with Light Rain 48 8.9 46 7.8 93 93 ENE 8 13 30.11 1020 5 8 0.02 0.51
1:54 pm 13:54 Cloudy 49 9.4 47 8.3 93 93 ENE 13 20 30.05 1018 10 16 0.01 0.25
2:54 pm 14:54 Cloudy 50 10 47 8.3 89 89 ENE 9 15 30.05 1018 10 16 0.00 0.00
3:54 pm 15:54 Cloudy with Light Rain 50 10 48 8.9 93 93 NE 5 7 30.06 1018 7 11 0.00 0.03
4:30 pm 16:30 Cloudy with Light Rain 50 10 48 8.9 93 93 NNE 7 11 30.06 1018 2 3 0.02 0.51
4:54 pm 16:54 Cloudy with Mist and Fog 51 10.6 49 9.4 92 92 NNE 6 9 30.05 1018 2 3 0.02 0.51
5:01 pm 17:01 Cloudy with Mist and Fog 50 10 49 9.4 96 96 NE 8 13 30.06 1018 6 10 0.00 0.00
5:54 pm 17:54 Cloudy with Light Rain 51 10.6 49 9.4 92 92 ENE 6 9 30.04 1017 4 6 0.01 0.25
6:04 pm 18:04 Cloudy with Light Rain 51 10.6 49 9.4 92 92 NE 7 11 30.03 1017 3 4 0.00 0.03
6:54 pm 18:54 Cloudy with Light Rain 51 10.6 49 9.4 92 92 NNE 6 9 30.04 1017 3 4 0.04 1.02
7:54 pm 19:54 Cloudy with Light Rain 51 10.6 49 9.4 92 92 NE 6 9 30.03 1017 4 6 0.01 0.25
8:43 pm 20:43 Cloudy with Light Rain 51 10.6 50 10 96 96 NNE 6 9 30.03 1017 7 11 0.00 0.03
8:54 pm 20:54 Cloudy with Light Rain 51 10.6 50 10 96 96 NE 7 11 30.02 1017 7 11 0.01 0.25
9:16 pm 21:16 Cloudy with Light Rain 51 10.6 50 10 96 96 ENE 6 9 30.00 1016 8 13 0.00 0.03
9:38 pm 21:38 Cloudy with Light Rain 51 10.6 50 10 96 96 ENE 3 6 30.00 1016 8 13 0.01 0.25
9:54 pm 21:54 Cloudy with Light Rain 51 10.6 50 10 96 96 NE 3 6 30.01 1016 7 11 0.02 0.51
10:54 pm 22:54 Cloudy with Light Rain 51 10.6 50 10 96 96 E 6 9 29.97 1015 8 13 0.03 0.76
11:54 pm 23:54 Cloudy with Light Rain 52 11.1 51 10.6 97 97 NNE 7 11 29.95 1014 10 16 0.02 0.51

Powered by AerisWeather